User: anonymous   Login
Location: Unspecified
(0.0000°N, 0.0000°E)
Time: 20:02:06
(UTC+00:00)
Language:

STARLINK-35282 - Orbit

View from above orbital plane
View from above orbital plane
View from above satellite
View from above satellite

Ground track
Ground track

The orbit is defined by the following mean orbital elements,

1 65658U          26145.13275029 +.00000000 +00000-0 +34542-3 0 00001
2 65658  97.4490 189.0388 0000939 146.5773 213.5514 15.05654257    07
Epoch (UTC): 25 May 2026 03:11:09
Eccentricity: 0.0000939
inclination: 97.4490°
perigee height: 549 km
apogee height: 550 km
right ascension of ascending node: 189.0388°
argument of perigee: 146.5773°
revolutions per day: 15.05654257
mean anomaly at epoch: 213.5514°

The dashed part of the orbit path shows where the satellite is in the earth's shadow,  

DLR